St Lawrence Observation History
Time Wind Speed Temp Pressure Rel. Hum Rain
14/10:30am S 11-17 kts 23.9°c 1015.8 hPa 33% 0.0mm
14/10:00am SSE 10-17 kts 23.4°c 1016.0 hPa 34% 0.0mm
14/09:30am SSE 11-16 kts 22.1°c 1016.2 hPa 35% 0.0mm
14/09:00am SSE 9-15 kts 21.6°c 1016.3 hPa 37% 0.0mm
14/08:30am S 8-12 kts 20.5°c 1016.1 hPa 44% 0.0mm
14/08:00am S 7-10 kts 19.2°c 1015.9 hPa 49% 0.0mm
14/07:30am SW 3-5 kts 16.9°c 1015.5 hPa 70% 0.0mm
14/07:00am SSW 3-4 kts 14.3°c 1015.1 hPa 80% 0.0mm
14/06:30am SSW 3-7 kts 14.3°c 1014.6 hPa 82% 0.0mm
14/06:00am W 1-4 kts 14.9°c 1014.3 hPa 79% 0.0mm
14/05:30am SW 3-5 kts 16.0°c 1013.7 hPa 70% 0.0mm
14/05:00am SSE 6-9 kts 17.9°c 1013.3 hPa 64% 0.0mm
14/04:30am SSE 7-9 kts 18.8°c 1013.0 hPa 61% 0.0mm
14/04:00am SSE 7-9 kts 19.0°c 1012.8 hPa 58% 0.0mm
14/03:30am SSE 7-10 kts 18.8°c 1012.6 hPa 61% 0.0mm
14/03:00am SSE 7-11 kts 19.3°c 1012.6 hPa 63% 0.0mm
14/02:30am S 6-9 kts 19.6°c 1012.6 hPa 59% 0.0mm
14/02:00am SSE 7-11 kts 19.8°c 1012.6 hPa 69% 0.0mm
14/01:30am S 5-9 kts 19.7°c 1012.8 hPa 87% 0.0mm
14/01:00am S 5-6 kts 20.3°c 1012.8 hPa 95% 0.0mm
14/12:30am WSW 3-4 kts 19.4°c 1012.7 hPa 93% 0.0mm
14/12:00am WSW 3-4 kts 19.4°c 1012.8 hPa 92% 0.0mm
Time Wind Speed Temp Pressure Rel. Hum Rain
13/11:30pm SW 3-4 kts 19.4°c 1012.9 hPa 91% 0.0mm
13/11:00pm WSW 3 kts 20.0°c 1013.0 hPa 90% 0.0mm
13/10:30pm WSW 3-4 kts 20.6°c 1012.9 hPa 91% 0.0mm
13/10:00pm SSW 3-5 kts 20.9°c 1013.0 hPa 91% 0.0mm
13/09:30pm CALM 0 kts 20.9°c 1013.0 hPa 89% 0.0mm
13/09:00pm CALM 0 kts 21.5°c 1012.9 hPa 88% 0.0mm
13/08:30pm SSW 2-4 kts 22.2°c 1012.7 hPa 88% 0.0mm
13/08:00pm NE 1-3 kts 22.6°c 1012.5 hPa 86% 0.0mm
13/07:30pm NNE 4-5 kts 23.3°c 1012.3 hPa 84% 0.0mm
13/07:00pm NE 5-6 kts 23.7°c 1012.0 hPa 82% 0.0mm
13/06:30pm NE 6-7 kts 24.1°c 1011.6 hPa 79% 0.0mm
13/06:00pm NNE 6-9 kts 24.8°c 1011.2 hPa 75% 0.0mm
13/05:30pm NNE 6-8 kts 25.6°c 1010.9 hPa 67% 0.0mm
13/05:00pm NNE 7-8 kts 26.9°c 1010.7 hPa 60% 0.0mm
13/04:30pm NE 7-10 kts 27.5°c 1010.4 hPa 54% 0.0mm
13/04:00pm NE 7-11 kts 28.6°c 1010.2 hPa 53% 0.0mm
13/03:30pm NNE 8-11 kts 29.1°c 1010.1 hPa 53% 0.0mm
13/03:00pm NNE 5-8 kts 29.4°c 1010.0 hPa 53% 0.0mm
13/02:30pm SE 5-8 kts 30.1°c 1010.2 hPa 45% 0.0mm
13/02:00pm SE 6-11 kts 30.1°c 1010.5 hPa 48% 0.0mm
13/01:30pm SE 7-11 kts 28.9°c 1010.9 hPa 49% 0.0mm
13/01:00pm S 6-10 kts 29.2°c 1011.3 hPa 48% 0.0mm
13/12:30pm SSE 7-11 kts 29.0°c 1011.9 hPa 49% 0.0mm
13/12:00pm SSW 6-11 kts 28.4°c 1012.4 hPa 52% 0.0mm
13/11:30am S 4-7 kts 28.1°c 1012.9 hPa 56% 0.0mm
13/11:00am S 7-14 kts 27.2°c 1013.3 hPa 56% 0.0mm
13/10:30am SSE 7-12 kts 26.7°c 1013.6 hPa 59% 0.0mm
13/10:00am S 6-11 kts 26.4°c 1013.9 hPa 63% 0.0mm
13/09:30am S 7-11 kts 25.4°c 1014.1 hPa 67% 0.0mm
13/09:00am S 7-10 kts 24.4°c 1014.1 hPa 71% 0.0mm
13/08:30am S 6-11 kts 23.5°c 1014.0 hPa 74% 0.0mm
13/08:00am SSE 8-14 kts 22.7°c 1013.7 hPa 78% 0.0mm
13/07:30am S 8-10 kts 22.0°c 1013.6 hPa 81% 0.0mm
13/07:00am S 7-10 kts 21.5°c 1013.4 hPa 85% 0.0mm
13/06:30am S 7-10 kts 21.2°c 1013.2 hPa 87% 0.0mm
13/06:00am SSE 8-11 kts 21.1°c 1012.9 hPa 87% 0.0mm
13/05:30am SSE 7-11 kts 21.0°c 1012.8 hPa 89% 0.0mm
13/05:00am S 8-12 kts 21.4°c 1012.6 hPa 90% 0.0mm
13/04:30am SSE 7-10 kts 21.6°c 1012.3 hPa 90% 0.0mm
13/04:00am S 7-11 kts 21.9°c 1012.1 hPa 89% 0.0mm
13/03:30am SSE 5-8 kts 22.1°c 1012.2 hPa 89% 0.0mm
13/03:00am S 5-7 kts 22.3°c 1012.1 hPa 88% 0.0mm
13/02:30am S 4-5 kts 22.2°c 1012.2 hPa 86% 0.0mm
13/02:00am SSE 5-6 kts 22.5°c 1012.4 hPa 87% 0.0mm
13/01:30am CALM 0 kts 21.9°c 1012.5 hPa 89% 0.0mm
13/01:00am CALM 0 kts 21.7°c 1012.7 hPa 90% 0.0mm
13/12:30am SW 3-4 kts 20.9°c 1013.1 hPa 91% 0.0mm
13/12:00am SW 3-4 kts 21.0°c 1013.2 hPa 89% 0.0mm
Time Wind Speed Temp Pressure Rel. Hum Rain
12/11:30pm CALM 0 kts 21.3°c 1013.4 hPa 88% 0.0mm
12/11:00pm CALM 0 kts 22.0°c 1013.6 hPa 87% 0.0mm
12/10:30pm CALM 0 kts 22.1°c 1013.8 hPa 88% 0.0mm
12/10:00pm NNW 2-4 kts 22.0°c 1013.9 hPa 87% 0.0mm
12/09:30pm CALM 0 kts 21.7°c 1013.8 hPa 88% 0.0mm
12/09:00pm CALM 0 kts 21.4°c 1013.8 hPa 86% 0.0mm
12/08:30pm CALM 0-1 kts 22.1°c 1013.6 hPa 85% 0.0mm
12/08:00pm CALM 0 kts 22.6°c 1013.4 hPa 81% 0.0mm
12/07:30pm CALM 0 kts 23.3°c 1013.2 hPa 79% 0.0mm
12/07:00pm NNW 3-5 kts 23.7°c 1013.0 hPa 77% 0.0mm
12/06:30pm N 5-7 kts 24.6°c 1012.7 hPa 73% 0.0mm
12/06:00pm N 7-10 kts 25.3°c 1012.6 hPa 70% 0.0mm
12/05:30pm N 5-7 kts 26.1°c 1012.5 hPa 68% 0.0mm
12/05:00pm NNE 6-8 kts 27.0°c 1012.1 hPa 64% 0.0mm
12/04:30pm NNE 7-10 kts 27.9°c 1011.9 hPa 60% 0.0mm
12/04:00pm NNE 9-12 kts 28.3°c 1011.8 hPa 59% 0.0mm
12/03:30pm NNE 7-9 kts 29.1°c 1011.8 hPa 57% 0.0mm
12/03:00pm NNE 9-12 kts 29.3°c 1011.7 hPa 52% 0.0mm
12/02:30pm NNE 8-10 kts 29.0°c 1012.0 hPa 52% 0.0mm
12/02:00pm NNE 8-10 kts 28.9°c 1012.2 hPa 52% 0.0mm
12/01:30pm NNE 9-11 kts 28.8°c 1012.5 hPa 53% 0.0mm
12/01:00pm NNE 8-11 kts 29.1°c 1013.0 hPa 52% 0.0mm
12/12:30pm NE 6-11 kts 29.2°c 1013.6 hPa 56% 0.0mm
12/12:00pm E 5-11 kts 27.8°c 1014.2 hPa 58% 0.0mm
12/11:30am SE 5-9 kts 27.3°c 1014.8 hPa 58% 0.0mm
12/11:00am ESE 5-7 kts 27.1°c 1015.5 hPa 62% 0.0mm
12/10:30am ESE 5-7 kts 25.9°c 1015.9 hPa 68% 0.0mm
12/10:00am E 5-9 kts 25.9°c 1016.1 hPa 72% 0.0mm
12/09:30am SE 4-6 kts 25.4°c 1015.9 hPa 77% 0.0mm
12/09:00am S 5-9 kts 24.6°c 1015.7 hPa 79% 0.0mm
12/08:30am S 4-5 kts 23.5°c 1015.5 hPa 85% 0.0mm
12/08:00am SSW 3-4 kts 21.7°c 1015.3 hPa 93% 0.0mm
12/07:30am SSW 3-4 kts 20.8°c 1015.1 hPa 97% 0.0mm
12/07:00am SSW 2-4 kts 19.9°c 1014.9 hPa 97% 0.0mm
12/06:30am CALM 0 kts 19.4°c 1014.7 hPa 96% 0.0mm
12/06:00am CALM 0 kts 19.6°c 1014.4 hPa 97% 0.0mm
12/05:30am SSW 1-4 kts 19.7°c 1014.1 hPa 95% 0.0mm
12/05:00am CALM 0 kts 19.8°c 1014.1 hPa 94% 0.0mm
12/04:30am SW 3-4 kts 20.4°c 1014.0 hPa 96% 0.0mm
12/04:00am CALM 0 kts 20.4°c 1014.0 hPa 95% 0.0mm
12/03:30am SSE 2-3 kts 20.6°c 1014.0 hPa 95% 0.0mm
12/03:00am CALM 0-3 kts 21.0°c 1014.1 hPa 93% 0.0mm
12/02:30am CALM 0 kts 21.6°c 1014.0 hPa 93% 0.0mm
12/02:00am CALM 0 kts 21.9°c 1014.4 hPa 94% 0.0mm
12/01:30am SSE 1-4 kts 22.1°c 1014.9 hPa 95% 0.0mm
12/01:00am SSE 3-4 kts 21.8°c 1015.0 hPa 96% 0.0mm
12/12:30am S 4 kts 21.6°c 1015.1 hPa 96% 0.0mm
12/12:00am CALM 0-3 kts 22.0°c 1015.0 hPa 95% 0.0mm